[[{"header":{"parameterUnit":"m.s-1","parameterCategory":1,"la1":30.2991,"la2":30.254,"lo1":-89.0895,"lo2":-89.0444,"dy":0.0017,"dx":0.0017,"nx":28,"ny":28,"refTime":"2025-05-28T09:00:00:Z","depth":0,"parameterNumber":2,"parameterNumberName":"U-component_of_WINDS"},"data":[0,0,0,0,0,0,0,0,0,0,0,0,0,0,0,0,0,0,0,0,0,0,0,0,0,0,0,0,0,0,0,0,0,0,0,0,0,0,0,0,0,0,0,0,0,0,0,0,0,0,0,0,0,0,0,0,0,0,3.7356,3.7357,0,3.7445,3.7446,3.7447,3.7378,3.7375,3.7372,3.7369,3.746,3.7465,3.7471,0,0,0,0,0,0,0,0,0,0,0,0,0,3.7121,3.7126,3.7356,3.7357,3.7358,3.7445,3.7446,3.7447,3.7378,3.7375,3.7371,3.7367,3.7459,3.7465,3.7471,0,0,0,0,0,0,0,0,0,0,0,0,0,3.7218,3.7127,3.7355,3.7334,3.7333,3.7445,3.7446,3.7448,3.7379,3.7374,3.737,3.7366,3.7457,3.7464,3.7472,3.761,0,0,3.7496,3.7499,0,0,0,0,0,0,0,0,3.7213,3.7227,3.7336,3.7335,3.7334,3.7396,3.7397,3.7502,3.738,3.7361,3.7369,3.7364,3.7442,3.7451,3.7478,3.7614,3.7618,3.7497,3.7501,3.7505,3.7507,0,0,0,0,0,0,0,3.7206,3.7223,3.7391,3.7337,3.7337,3.7318,3.7327,3.7417,3.7426,3.7363,3.7358,3.7369,3.7441,3.747,3.7479,3.762,3.7496,3.7503,3.7508,3.7511,3.7869,3.7873,0,0,0,0,0,0,3.7202,3.7217,3.7388,3.7394,3.7261,3.7326,3.7336,3.7381,3.7425,3.7427,3.7373,3.7366,3.7459,3.747,3.7482,3.7643,3.7505,3.7512,3.7517,3.7864,3.787,3.7875,0,0,0,0,0,0,3.7197,3.7218,3.7384,3.7304,3.7324,3.7335,3.7385,3.7385,3.7414,3.7433,3.7434,3.7401,3.7456,3.7471,3.7578,3.7645,3.7516,3.7523,3.7858,3.7866,3.7872,3.7968,0,0,0,0,0,0,3.7191,3.7216,3.727,3.7306,3.7329,3.748,3.739,3.739,3.7427,3.7419,3.746,3.7462,3.7454,3.7566,3.7586,3.7654,3.7529,3.7852,3.7862,3.787,3.7959,3.7978,3.7994,0,0,0,0,0,3.7183,3.7295,3.7273,3.7294,3.7396,3.7484,3.7496,3.7485,3.7433,3.7486,3.7498,3.7461,3.7636,3.7578,3.7599,3.7671,3.7848,3.7859,3.7869,3.7951,3.7974,3.7994,0,0,0,0,0,0,3.7267,3.7299,3.7276,3.7403,3.7441,3.7472,3.7538,3.751,3.7564,3.7553,3.7537,3.7546,3.7657,3.7675,3.761,3.7804,3.7733,3.7749,3.7788,3.781,3.7827,3.782,3.7535,0,0,0,0,0,3.73,3.737,3.7394,3.7503,3.7524,3.7528,3.7566,3.7553,3.7592,3.7608,3.7627,3.7666,3.7729,3.7771,3.7831,3.7962,3.7968,3.8021,3.8039,3.8053,3.8066,3.8132,3.8155,3.791,3.791,3.791,0,0,3.737,3.7396,3.7441,3.7521,3.7549,3.7619,3.7542,3.7621,3.7672,3.762,3.772,3.7736,3.7778,3.7896,3.7949,3.7914,3.8135,3.8067,3.8078,3.8083,3.8145,3.8169,3.8189,3.7918,3.7916,3.7915,0,0,3.7532,3.7561,3.7653,3.7682,3.7725,3.7726,3.7749,3.7783,3.7791,3.7892,3.7852,3.7913,3.8024,3.8053,3.8083,3.8253,3.8219,3.8273,3.8363,3.8428,3.8447,3.8464,3.8521,3.8542,3.8286,3.8287,3.8287,0,3.7614,3.7719,3.7704,3.7784,3.7819,3.7774,3.7866,3.7895,3.7955,3.7979,3.794,3.8074,3.8099,3.8222,3.8263,3.829,3.8312,3.8267,3.8446,3.8463,3.8478,3.8532,3.8554,3.8292,3.8292,3.8291,3.8291,0,3.7814,3.7887,3.7956,3.8014,3.8057,3.8143,3.814,3.8185,3.8168,3.8173,3.8274,3.8302,3.8364,3.8393,3.8379,3.8513,3.8489,3.8448,3.8376,3.8508,3.8558,3.8579,3.8301,3.8299,3.8297,3.8296,0,0,3.8033,3.8079,3.8104,3.8128,3.8171,3.8226,3.8309,3.8369,3.8406,3.8449,3.8515,3.8608,3.8569,3.8603,3.8591,3.8648,3.8776,3.86,3.86,3.8628,3.8921,3.8949,3.8973,3.8755,3.8759,3.8762,3.8916,0,3.8193,3.8337,3.8325,3.846,3.8525,3.8482,3.8553,3.8586,3.8592,3.8648,3.8655,3.8719,3.8665,3.8684,3.8739,3.8749,3.8834,3.8738,3.8814,3.8817,3.8802,3.9,3.9031,3.9175,3.8936,3.8939,3.8942,0,3.8401,3.8449,3.859,3.8619,3.8645,3.871,3.8762,3.8816,3.8852,3.8852,3.8888,3.8865,3.8946,3.8874,3.8983,3.8918,3.8948,3.8957,3.8962,3.8967,3.8885,3.9007,3.9221,3.9241,3.8973,3.8971,3.8968,0,3.8541,3.8641,3.8737,3.876,3.8797,3.8842,3.886,3.8891,3.8926,3.8972,3.8994,3.9049,3.9079,3.9121,3.9112,3.9061,3.9222,3.915,3.9223,3.9223,3.9257,3.9254,3.9476,3.9282,3.9282,3.9281,3.9281,0,3.872,3.8808,3.88,3.8859,3.8954,3.8939,3.9033,3.9045,3.9072,3.9131,3.9098,3.9154,3.9141,3.9196,3.9191,3.9279,3.9294,3.9295,3.9291,3.9296,3.9295,3.9314,3.9302,3.9287,3.9286,3.9285,3.9284,0,3.8893,3.8892,3.8993,3.9019,3.9027,3.9096,3.9117,3.9172,3.9175,3.9249,3.9266,3.9271,3.9333,3.933,3.9401,3.9397,3.9505,3.9492,3.9493,3.9489,3.956,3.9552,3.9799,3.9829,3.9619,3.9621,3.9622,0,3.9006,3.9071,3.9103,3.914,3.916,3.9221,3.9256,3.9243,3.9281,3.9324,3.9372,3.9432,3.9478,3.958,3.9589,3.9642,3.9628,3.9711,3.9636,3.9637,3.9625,3.962,3.9624,3.9725,3.9727,3.9729,3.9731,0,3.9205,3.92,3.9253,3.9305,3.9347,3.9388,3.9424,3.9456,3.9446,3.949,3.9553,3.9589,3.966,3.9718,3.9769,3.9785,3.9756,3.9754,3.9773,3.9777,3.9773,3.9772,3.953,3.9748,3.9747,3.9745,3.9744,3.9744,3.9349,3.9403,3.9433,3.9492,3.9517,3.9551,3.9602,3.9611,3.9663,3.9719,3.9709,3.9778,3.9808,3.9873,3.9894,3.9947,3.9917,3.9946,3.9952,3.9959,3.9965,3.9767,3.9957,3.9956,3.9956,3.9955,3.9955,0,3.9543,3.956,3.9614,3.9664,3.971,3.9678,3.9716,3.9755,3.9817,3.9848,3.9893,3.9964,4.0019,4.0032,4.0084,4.0124,4.0112,4.0138,4.0134,4.0137,3.9991,3.9967,4.0147,4.0147,4.0147,4.0147,4.0147,4.0147,3.9649,3.9738,3.9737,3.9837,3.9853,3.9921,3.9944,3.9974,3.9998,4.0078,4.0124,4.0131,4.0154,4.0207,4.0256,4.0258,4.0277,4.0309,4.0305,4.0167,4.0148,4.013,4.0107,4.0314,4.0314,4.0447,4.0448,4.0449]},{"header":{"parameterUnit":"m.s-1","parameterCategory":1,"la1":30.2991,"la2":30.254,"lo1":-89.0895,"lo2":-89.0444,"dy":0.0017,"dx":0.0017,"nx":28,"ny":28,"refTime":"2025-05-28T09:00:00:Z","depth":0,"parameterNumber":3,"parameterNumberName":"V-component_of_WINDS"},"data":[0,0,0,0,0,0,0,0,0,0,0,0,0,0,0,0,0,0,0,0,0,0,0,0,0,0,0,0,0,0,0,0,0,0,0,0,0,0,0,0,0,0,0,0,0,0,0,0,0,0,0,0,0,0,0,0,0,0,3.8948,3.895,0,3.909,3.9091,3.9093,3.9065,3.9063,3.906,3.9058,3.92,3.9206,3.9212,0,0,0,0,0,0,0,0,0,0,0,0,0,3.8649,3.8655,3.8948,3.895,3.8952,3.9089,3.9091,3.9093,3.9066,3.9063,3.906,3.9057,3.9198,3.9205,3.9213,0,0,0,0,0,0,0,0,0,0,0,0,0,3.8784,3.8657,3.8948,3.8954,3.8956,3.9089,3.9091,3.9094,3.9066,3.9063,3.9059,3.9055,3.9196,3.9205,3.9214,3.9348,0,0,3.9242,3.9246,0,0,0,0,0,0,0,0,3.8776,3.8795,3.8952,3.8954,3.8957,3.9056,3.9038,3.9179,3.9067,3.9025,3.9058,3.9053,3.9155,3.9167,3.9202,3.9354,3.936,3.9243,3.9249,3.9252,3.9255,0,0,0,0,0,0,0,3.8767,3.8788,3.9004,3.8954,3.8957,3.8949,3.8964,3.9065,3.9109,3.9028,3.9026,3.9044,3.9156,3.9193,3.9205,3.9362,3.9243,3.9251,3.9257,3.926,3.9627,3.9631,0,0,0,0,0,0,3.8756,3.8781,3.8999,3.9008,3.8855,3.8957,3.8974,3.9028,3.9108,3.9117,3.9047,3.9042,3.918,3.9195,3.921,3.9369,3.9252,3.9261,3.9266,3.9623,3.9628,3.9632,0,0,0,0,0,0,3.8749,3.8775,3.8994,3.8894,3.8921,3.8967,3.9027,3.9033,3.907,3.9123,3.913,3.9077,3.9177,3.9197,3.9313,3.9374,3.9265,3.9274,3.9618,3.9624,3.963,3.9691,0,0,0,0,0,0,3.8741,3.8773,3.8826,3.8895,3.8927,3.9096,3.9031,3.9038,3.9087,3.9082,3.9153,3.9161,3.9176,3.9299,3.9322,3.9385,3.9281,3.9612,3.9621,3.9628,3.9683,3.9698,3.9711,0,0,0,0,0,3.873,3.8838,3.8829,3.8855,3.8994,3.9099,3.9117,3.9132,3.9092,3.9144,3.9177,3.9159,3.9364,3.9311,3.9337,3.9403,3.9609,3.9618,3.9627,3.9677,3.9695,3.9711,0,0,0,0,0,0,3.8774,3.8847,3.8838,3.8972,3.9029,3.9094,3.9161,3.9151,3.9221,3.9213,3.9228,3.9244,3.9361,3.9394,3.9334,3.9535,3.948,3.9495,3.9509,3.9527,3.9541,3.953,3.9289,0,0,0,0,0,3.8799,3.888,3.8939,3.9051,3.9081,3.9116,3.9163,3.9169,3.9229,3.9253,3.9295,3.9353,3.943,3.948,3.9554,3.9688,3.9701,3.9746,3.976,3.9771,3.9783,3.9852,3.9872,3.9663,3.9663,3.9663,0,0,3.8853,3.8902,3.8953,3.9061,3.9107,3.9188,3.9137,3.9226,3.9286,3.9267,3.9378,3.941,3.9475,3.96,3.9656,3.963,3.9844,3.9783,3.9791,3.9798,3.9864,3.9884,3.9901,3.9669,3.9668,3.9667,0,0,3.899,3.9037,3.9134,3.918,3.925,3.9272,3.9295,3.9362,3.9382,3.9494,3.948,3.9551,3.9684,3.973,3.9771,3.9923,3.9908,3.9947,4.0018,4.0086,4.0102,4.0117,4.0168,4.0187,3.9959,3.9959,3.9959,0,3.9047,3.9171,3.9185,3.9275,3.9322,3.9308,3.9404,3.9448,3.9538,3.957,3.954,3.9704,3.9748,3.9881,3.9918,3.9952,3.9977,3.9939,4.0099,4.0114,4.0128,4.0177,4.0197,3.9963,3.9963,3.9962,3.9962,0,3.9235,3.9321,3.9391,3.9478,3.9532,3.9625,3.9651,3.9705,3.9706,3.973,3.9842,3.9893,3.9976,4.0008,4.001,4.0141,4.0122,4.0096,4.0041,4.0151,4.0198,4.0217,3.9969,3.9968,3.9967,3.9966,0,0,3.9406,3.9498,3.9523,3.9561,3.9635,3.9701,3.9791,3.9872,3.9916,3.9978,4.0053,4.0165,4.0139,4.0186,4.0193,4.0252,4.0365,4.0218,4.0219,4.0241,4.0509,4.0527,4.0549,4.0356,4.036,4.0363,4.0502,0,3.9549,3.971,3.9724,3.9868,3.9946,3.9932,4.001,4.0063,4.0088,4.0156,4.0183,4.0261,4.0223,4.025,4.0309,4.0339,4.0419,4.0329,4.0423,4.0426,4.0406,4.0573,4.0594,4.0723,4.0521,4.0524,4.0526,0,3.9738,3.9804,3.9956,4.0016,4.0049,4.012,4.0193,4.0259,4.0318,4.0331,4.0382,4.038,4.047,4.0412,4.0536,4.0475,4.0514,4.0534,4.0539,4.0547,4.0482,4.0584,4.0765,4.0784,4.0555,4.0553,4.0551,0,3.9844,3.9972,4.0078,4.0111,4.0185,4.0234,4.0267,4.0322,4.0368,4.0432,4.0462,4.0535,4.0575,4.0631,4.0648,4.0605,4.0769,4.0714,4.0781,4.0781,4.0816,4.0813,4.1004,4.0844,4.0844,4.0843,4.0843,0,4.0001,4.0094,4.0126,4.0191,4.0294,4.0308,4.0408,4.0438,4.0486,4.0555,4.0548,4.0613,4.0631,4.0699,4.0712,4.081,4.0829,4.0841,4.0843,4.0841,4.0839,4.0865,4.0856,4.0848,4.0847,4.0846,4.0845,0,4.0137,4.0163,4.0277,4.0337,4.0354,4.0426,4.0477,4.0538,4.0561,4.0648,4.0669,4.0705,4.0783,4.0805,4.09,4.0909,4.1023,4.1018,4.1004,4.1003,4.1068,4.1061,4.1282,4.131,4.1133,4.1135,4.1136,0,4.0234,4.0305,4.0372,4.0418,4.0453,4.0527,4.0574,4.059,4.0639,4.0709,4.0761,4.0839,4.0902,4.1027,4.106,4.1131,4.1127,4.1199,4.1137,4.1132,4.1125,4.112,4.1125,4.121,4.1212,4.1214,4.1215,0,4.0404,4.0413,4.0482,4.0554,4.0611,4.0669,4.0724,4.0762,4.0785,4.084,4.092,4.0969,4.1064,4.114,4.1212,4.1243,4.1232,4.1234,4.1253,4.125,4.1238,4.1243,4.1033,4.1229,4.1227,4.1226,4.1225,4.1225,4.0523,4.0584,4.0639,4.0715,4.0758,4.081,4.087,4.0899,4.0967,4.1046,4.1051,4.1137,4.119,4.1285,4.132,4.1386,4.1365,4.1393,4.1399,4.1406,4.141,4.1229,4.1399,4.1399,4.1399,4.1398,4.1398,0,4.069,4.0725,4.0794,4.0872,4.093,4.0916,4.0975,4.1025,4.1101,4.1152,4.1214,4.1304,4.1377,4.1415,4.1487,4.1532,4.1528,4.155,4.1546,4.1553,4.1426,4.1402,4.1552,4.1552,4.1552,4.1552,4.1551,4.1551,4.0784,4.0885,4.09,4.1021,4.1055,4.114,4.1175,4.1221,4.1261,4.1363,4.1423,4.1448,4.1493,4.1567,4.1632,4.1641,4.1667,4.1691,4.1697,4.1578,4.1562,4.1547,4.1524,4.1697,4.1697,4.1818,4.1819,4.182]}]]